Overview Statistics Trail Chart Weather Telemetry Raw packets
 

This is the latest recevied weather packets stored in our database for station/object LA4M-10. If no packets are shown the sender has not sent any weather packets the latest 10 day(s).

<< 21 22 23 24 25 26 27 >>
Time Temp. Humidity Pressure Rain* Wind** Luminosity Snow
1787999852 12.22° C 100% 934.2 hPa - - - -
1787998952 12.22° C 100% 934.5 hPa - - - -
1787998052 12.22° C 100% 934.5 hPa - - - -
1787997152 12.22° C 100% 934.8 hPa - - - -
1787996252 11.67° C 100% 934.6 hPa - - - -
1787995352 11.67° C 100% 935 hPa - - - -
1787994452 11.67° C 100% 935.1 hPa - - - -
1787993549 11.67° C 100% 934.9 hPa - - - -
1787992649 11.11° C 100% 935.5 hPa - - - -
1787991749 11.11° C 100% 935.8 hPa - - - -
1787990849 11.11° C 100% 935.9 hPa - - - -
1787989949 11.11° C 100% 935.8 hPa - - - -
1787989049 11.11° C 100% 935.6 hPa - - - -
1787988149 11.11° C 100% 935.3 hPa - - - -
1787987248 12.22° C 100% 935.3 hPa - - - -
1787986348 12.78° C 100% 935.6 hPa - - - -
1787985448 12.78° C 100% 935.8 hPa - - - -
1787984548 12.78° C 100% 935.8 hPa - - - -
1787983648 12.78° C 100% 936.1 hPa - - - -
1787982748 12.78° C 100% 936.4 hPa - - - -
1787981848 12.78° C 100% 936.5 hPa - - - -
1787980948 13.33° C 100% 936.7 hPa - - - -
1787980048 13.33° C 100% 936.7 hPa - - - -
1787979148 13.33° C 100% 937.1 hPa - - - -
1787978247 13.33° C 100% 937 hPa - - - -

* Rain since midnight (hover to see other rain measurements)
** Current wind speed in m/s (hover to see current wind gust speed)